Location: Im Fang
(46.6019°N, 7.2397°E)
Time: 02:27:41
(UTC+00:00)

Meteor 1-20 Rocket - Pass Details

Date: 08 December 2019
Orbit: 819 x 892 km, 81.2° (Epoch: 22 January)

Event Time Altitude Azimuth Distance (km) Brightness Sun altitude
Rises 05:08:51 0° 192° (SSW) 3,481 7.4 -18.6°
Reaches altitude 10° 05:11:17 10° 193° (SSW) 2,550 6.7 -18.2°
Maximum altitude 05:17:07 81° 280° (W) 909 4.2 -17.2°
Drops below altitude 10° 05:23:01 10° 9° (N) 2,568 6.6 -16.2°
Sets 05:25:29 0° 11° (N) 3,507 7.4 -15.8°
